QPF
0.00 0.00 0.00 0.00 0.00 0.01 0.01 0.01 0.00 0.01 0.01 0.02 0.03 0.02 0.02 0.02 0.01 0.01 0.02 0.02 0.02 0.02 0.03 0.05 0.05 0.03 0.03 0.04 0.07 0.09 0.08 0.05 0.08 0.13 0.20 0.20 0.12 0.04 0.01 0.00 0.00 0.00 0.00
0.00 0.00 0.00 0.00 0.02 0.02 0.02 0.04 0.04 0.03 0.06 0.10 0.13 0.06 0.01 0.01 0.00 0.01 0.01 0.01 0.01 0.01 0.02 0.03 0.03 0.01 0.01 0.01 0.02 0.02 0.03 0.03 0.04 0.05 0.07 0.11 0.10 0.06 0.02 0.01 0.01 0.01 0.01
0.00 0.00 0.00 0.01 0.02 0.03 0.05 0.06 0.10 0.10 0.12 0.15 0.11 0.06 0.01 0.00 0.00 0.00 0.00 0.00 0.01 0.01 0.01 0.02 0.01 0.00 0.00 0.01 0.00 0.00 0.00 0.01 0.02 0.03 0.04 0.05 0.07 0.04 0.02 0.01 0.01 0.02 0.02
0.00 0.01 0.02 0.06 0.10 0.10 0.08 0.11 0.21 0.17 0.14 0.14 0.09 0.06 0.02 0.01 0.01 0.00 0.00 0.00 0.00 0.00 0.00 0.01 0.01 0.00 0.00 0.00 0.00 0.00 0.02 0.03 0.03 0.05 0.06 0.07 0.09 0.05 0.02 0.01 0.01 0.01 0.02
0.03 0.07 0.10 0.17 0.21 0.18 0.17 0.20 0.25 0.19 0.11 0.09 0.11 0.10 0.05 0.04 0.01 0.01 0.00 0.00 0.00 0.00 0.00 0.00 0.01 0.01 0.00 0.00 0.00 0.01 0.02 0.03 0.03 0.04 0.07 0.09 0.13 0.10 0.04 0.02 0.03 0.04 0.04
0.05 0.10 0.12 0.14 0.20 0.22 0.22 0.18 0.14 0.18 0.14 0.13 0.25 0.27 0.11 0.03 0.03 0.01 0.00 0.00 0.00 0.00 0.00 0.00 0.00 0.00 0.00 0.00 0.00 0.01 0.02 0.02 0.02 0.04 0.08 0.12 0.17 0.18 0.08 0.04 0.06 0.07 0.07
0.05 0.08 0.06 0.07 0.09 0.10 0.17 0.21 0.18 0.14 0.06 0.10 0.20 0.23 0.09 0.06 0.11 0.04 0.02 0.02 0.01 0.00 0.00 0.00 0.00 0.00 0.00 0.00 0.00 0.01 0.02 0.01 0.02 0.05 0.08 0.12 0.19 0.27 0.16 0.11 0.13 0.10 0.09
0.03 0.03 0.02 0.02 0.03 0.10 0.13 0.15 0.19 0.15 0.09 0.09 0.12 0.20 0.09 0.09 0.12 0.08 0.08 0.12 0.08 0.03 0.01 0.00 0.00 0.00 0.00 0.00 0.00 0.00 0.00 0.00 0.01 0.04 0.08 0.09 0.14 0.26 0.24 0.22 0.24 0.23 0.25
0.02 0.01 0.01 0.02 0.04 0.10 0.15 0.19 0.20 0.17 0.16 0.15 0.15 0.14 0.08 0.07 0.09 0.08 0.12 0.14 0.11 0.07 0.04 0.03 0.01 0.00 0.00 0.00 0.00 0.00 0.00 0.00 0.01 0.01 0.04 0.07 0.10 0.20 0.26 0.25 0.28 0.31 0.35
0.00 0.01 0.02 0.05 0.09 0.16 0.17 0.17 0.15 0.11 0.08 0.12 0.12 0.09 0.09 0.11 0.14 0.08 0.07 0.06 0.07 0.08 0.09 0.07 0.03 0.02 0.01 0.01 0.00 0.00 0.00 0.00 0.00 0.00 0.00 0.02 0.07 0.14 0.18 0.16 0.15 0.15 0.18
0.00 0.00 0.01 0.04 0.09 0.14 0.13 0.11 0.08 0.07 0.05 0.07 0.13 0.16 0.14 0.12 0.16 0.20 0.16 0.12 0.11 0.11 0.11 0.05 0.02 0.02 0.02 0.01 0.00 0.00 0.00 0.00 0.00 0.00 0.00 0.02 0.04 0.06 0.14 0.22 0.15 0.09 0.08
0.00 0.01 0.02 0.04 0.11 0.17 0.15 0.12 0.08 0.06 0.09 0.13 0.14 0.12 0.11 0.11 0.11 0.14 0.12 0.08 0.06 0.03 0.02 0.02 0.01 0.02 0.02 0.01 0.00 0.00 0.00 0.00 0.00 0.00 0.00 0.01 0.01 0.02 0.06 0.12 0.13 0.07 0.05
0.00 0.01 0.01 0.03 0.10 0.16 0.13 0.09 0.08 0.13 0.15 0.15 0.13 0.11 0.12 0.11 0.09 0.12 0.13 0.15 0.12 0.05 0.02 0.01 0.02 0.03 0.02 0.01 0.00 0.00 0.00 0.00 0.00 0.00 0.01 0.01 0.01 0.02 0.05 0.10 0.10 0.07 0.04
0.01 0.01 0.01 0.02 0.03 0.05 0.05 0.05 0.04 0.08 0.10 0.09 0.09 0.11 0.17 0.19 0.20 0.25 0.25 0.27 0.23 0.13 0.06 0.04 0.04 0.04 0.04 0.02 0.01 0.00 0.00 0.00 0.00 0.01 0.02 0.01 0.02 0.05 0.11 0.10 0.06 0.05 0.03
0.04 0.05 0.04 0.04 0.03 0.04 0.07 0.11 0.14 0.16 0.17 0.14 0.14 0.15 0.17 0.15 0.14 0.16 0.19 0.23 0.26 0.19 0.10 0.05 0.07 0.08 0.05 0.04 0.02 0.00 0.00 0.00 0.00 0.01 0.03 0.03 0.06 0.12 0.13 0.07 0.04 0.03 0.02
0.03 0.05 0.07 0.04 0.03 0.03 0.05 0.14 0.27 0.36 0.34 0.26 0.22 0.23 0.23 0.19 0.17 0.17 0.14 0.16 0.22 0.18 0.07 0.05 0.07 0.08 0.05 0.03 0.01 0.00 0.00 0.01 0.01 0.01 0.01 0.02 0.05 0.07 0.06 0.04 0.03 0.01 0.00
0.01 0.02 0.03 0.03 0.02 0.02 0.02 0.03 0.09 0.19 0.20 0.15 0.16 0.20 0.20 0.16 0.14 0.11 0.10 0.14 0.16 0.11 0.06 0.05 0.08 0.07 0.04 0.03 0.03 0.01 0.00 0.01 0.02 0.01 0.00 0.00 0.01 0.02 0.02 0.02 0.01 0.00 0.00
0.00 0.00 0.00 0.00 0.00 0.00 0.00 0.00 0.01 0.03 0.05 0.04 0.03 0.04 0.04 0.04 0.04 0.04 0.05 0.06 0.05 0.06 0.08 0.09 0.14 0.12 0.06 0.06 0.04 0.03 0.01 0.00 0.01 0.01 0.00 0.00 0.00 0.00 0.00 0.00 0.00 0.00 0.00
0.00 0.00 0.00 0.00 0.00 0.00 0.00 0.00 0.00 0.00 0.00 0.00 0.00 0.00 0.00 0.00 0.00 0.00 0.01 0.01 0.01 0.03 0.05 0.06 0.09 0.10 0.05 0.04 0.04 0.05 0.05 0.03 0.01 0.01 0.01 0.01 0.01 0.01 0.01 0.00 0.00 0.00 0.00
0.00 0.00 0.00 0.00 0.00 0.00 0.01 0.01 0.01 0.01 0.01 0.01 0.01 0.00 0.00 0.00 0.00 0.00 0.00 0.00 0.01 0.03 0.06 0.07 0.08 0.12 0.13 0.10 0.06 0.06 0.11 0.07 0.04 0.05 0.04 0.04 0.06 0.06 0.03 0.02 0.01 0.00 0.00
0.00 0.00 0.00 0.00 0.00 0.00 0.00 0.00 0.00 0.01 0.01 0.01 0.01 0.00 0.00 0.00 0.00 0.00 0.00 0.00 0.00 0.01 0.04 0.04 0.08 0.14 0.20 0.22 0.19 0.13 0.13 0.09 0.07 0.07 0.05 0.05 0.05 0.03 0.01 0.01 0.00 0.00 0.00
0.00 0.00 0.00 0.00 0.00 0.00 0.00 0.00 0.00 0.00 0.00 0.00 0.00 0.00 0.00 0.00 0.00 0.00 0.00 0.00 0.00 0.00 0.01 0.02 0.05 0.11 0.18 0.26 0.30 0.23 0.16 0.09 0.05 0.04 0.04 0.02 0.01 0.01 0.00 0.00 0.00 0.00 0.00
0.00 0.00 0.00 0.00 0.00 0.00 0.00 0.00 0.00 0.00 0.00 0.00 0.00 0.00 0.00 0.00 0.00 0.00 0.00 0.00 0.00 0.00 0.00 0.01 0.02 0.04 0.06 0.08 0.13 0.16 0.17 0.18 0.15 0.06 0.03 0.03 0.01 0.01 0.00 0.00 0.00 0.01 0.01
0.00 0.00 0.00 0.00 0.00 0.00 0.00 0.00 0.00 0.00 0.00 0.00 0.00 0.00 0.00 0.00 0.00 0.00 0.00 0.00 0.00 0.00 0.00 0.00 0.00 0.00 0.01 0.01 0.02 0.03 0.05 0.08 0.11 0.09 0.05 0.02 0.01 0.01 0.01 0.01 0.01 0.02 0.02
0.00 0.00 0.00 0.00 0.00 0.00 0.00 0.00 0.00 0.00 0.00 0.00 0.00 0.00 0.00 0.00 0.00 0.00 0.00 0.00 0.00 0.00 0.00 0.00 0.00 0.00 0.00 0.00 0.00 0.00 0.01 0.01 0.01 0.02 0.01 0.01 0.01 0.01 0.01 0.01 0.02 0.01 0.00
0.00 0.00 0.00 0.00 0.00 0.00 0.00 0.00 0.00 0.00 0.00 0.00 0.00 0.00 0.00 0.00 0.00 0.00 0.00 0.00 0.00 0.00 0.00 0.00 0.00 0.00 0.00 0.00 0.00 0.00 0.00 0.00 0.00 0.00 0.00 0.00 0.02 0.02 0.01 0.02 0.04 0.03 0.02
MSLP
1015.50 1015.51 1015.44 1015.34 1015.24 1015.15 1015.11 1015.10 1015.12 1015.14 1015.13 1015.08 1014.97 1014.83 1014.66 1014.49 1014.33 1014.22 1014.15 1014.12 1014.13 1014.16 1014.20 1014.26 1014.32 1014.37 1014.42 1014.46 1014.49 1014.51 1014.52 1014.54 1014.58 1014.67 1014.82 1015.05 1015.36 1015.75 1016.18 1016.64 1017.08 1017.49 1017.85
1015.18 1015.20 1015.16 1015.09 1015.01 1014.96 1014.94 1014.95 1014.97 1014.97 1014.95 1014.88 1014.75 1014.58 1014.38 1014.18 1014.00 1013.85 1013.76 1013.71 1013.70 1013.74 1013.80 1013.88 1013.97 1014.04 1014.11 1014.15 1014.16 1014.14 1014.11 1014.08 1014.07 1014.12 1014.25 1014.47 1014.79 1015.19 1015.66 1016.15 1016.64 1017.10 1017.51
1014.84 1014.87 1014.85 1014.82 1014.79 1014.78 1014.79 1014.82 1014.84 1014.84 1014.80 1014.71 1014.57 1014.38 1014.16 1013.93 1013.71 1013.53 1013.39 1013.30 1013.27 1013.29 1013.35 1013.44 1013.54 1013.65 1013.74 1013.80 1013.81 1013.78 1013.72 1013.66 1013.61 1013.61 1013.70 1013.89 1014.19 1014.59 1015.07 1015.59 1016.12 1016.64 1017.11
1014.50 1014.53 1014.54 1014.54 1014.56 1014.58 1014.62 1014.66 1014.69 1014.68 1014.63 1014.53 1014.38 1014.17 1013.94 1013.69 1013.45 1013.23 1013.05 1012.91 1012.83 1012.81 1012.85 1012.93 1013.04 1013.17 1013.29 1013.37 1013.41 1013.40 1013.33 1013.24 1013.15 1013.11 1013.15 1013.29 1013.55 1013.93 1014.41 1014.95 1015.53 1016.10 1016.65
1014.18 1014.19 1014.21 1014.24 1014.28 1014.33 1014.39 1014.43 1014.46 1014.44 1014.38 1014.28 1014.12 1013.93 1013.70 1013.46 1013.21 1012.96 1012.74 1012.55 1012.42 1012.34 1012.33 1012.38 1012.49 1012.62 1012.77 1012.88 1012.95 1012.96 1012.90 1012.80 1012.68 1012.59 1012.57 1012.66 1012.87 1013.22 1013.68 1014.24 1014.86 1015.50 1016.13
1013.89 1013.88 1013.88 1013.91 1013.95 1014.01 1014.06 1014.09 1014.10 1014.07 1014.01 1013.91 1013.77 1013.61 1013.42 1013.20 1012.97 1012.72 1012.48 1012.25 1012.05 1011.91 1011.84 1011.84 1011.92 1012.04 1012.19 1012.33 1012.43 1012.46 1012.42 1012.31 1012.17 1012.04 1011.97 1011.99 1012.15 1012.46 1012.91 1013.48 1014.14 1014.85 1015.57
1013.65 1013.58 1013.55 1013.55 1013.57 1013.60 1013.62 1013.63 1013.61 1013.57 1013.50 1013.42 1013.32 1013.20 1013.07 1012.92 1012.73 1012.51 1012.27 1012.02 1011.78 1011.57 1011.43 1011.37 1011.39 1011.48 1011.62 1011.76 1011.87 1011.92 1011.89 1011.78 1011.63 1011.46 1011.34 1011.31 1011.41 1011.68 1012.12 1012.71 1013.42 1014.20 1015.00
1013.45 1013.32 1013.23 1013.18 1013.16 1013.14 1013.12 1013.08 1013.03 1012.97 1012.90 1012.84 1012.78 1012.74 1012.69 1012.61 1012.50 1012.34 1012.13 1011.87 1011.60 1011.34 1011.13 1010.99 1010.95 1010.99 1011.09 1011.22 1011.32 1011.38 1011.35 1011.24 1011.07 1010.87 1010.71 1010.64 1010.70 1010.94 1011.37 1011.97 1012.72 1013.57 1014.46
1013.31 1013.11 1012.95 1012.84 1012.75 1012.68 1012.60 1012.51 1012.42 1012.33 1012.26 1012.22 1012.22 1012.25 1012.28 1012.31 1012.29 1012.20 1012.03 1011.80 1011.51 1011.21 1010.94 1010.74 1010.62 1010.60 1010.64 1010.73 1010.82 1010.86 1010.83 1010.72 1010.53 1010.32 1010.13 1010.03 1010.07 1010.29 1010.71 1011.33 1012.12 1013.02 1013.98
1013.21 1012.95 1012.73 1012.55 1012.41 1012.27 1012.13 1011.99 1011.86 1011.74 1011.66 1011.64 1011.68 1011.77 1011.90 1012.01 1012.08 1012.07 1011.97 1011.76 1011.49 1011.17 1010.85 1010.59 1010.41 1010.32 1010.31 1010.35 1010.40 1010.42 1010.37 1010.25 1010.07 1009.85 1009.65 1009.53 1009.56 1009.77 1010.20 1010.83 1011.64 1012.58 1013.59
1013.15 1012.84 1012.58 1012.36 1012.16 1011.97 1011.78 1011.59 1011.41 1011.27 1011.18 1011.16 1011.23 1011.36 1011.54 1011.72 1011.87 1011.93 1011.88 1011.72 1011.46 1011.14 1010.81 1010.51 1010.28 1010.13 1010.06 1010.06 1010.07 1010.06 1010.01 1009.88 1009.70 1009.49 1009.30 1009.19 1009.23 1009.44 1009.87 1010.51 1011.33 1012.28 1013.31
1013.13 1012.81 1012.52 1012.26 1012.03 1011.80 1011.58 1011.35 1011.13 1010.95 1010.84 1010.81 1010.88 1011.03 1011.23 1011.45 1011.64 1011.74 1011.74 1011.62 1011.39 1011.09 1010.76 1010.45 1010.18 1010.00 1009.89 1009.85 1009.83 1009.80 1009.74 1009.62 1009.46 1009.27 1009.11 1009.03 1009.08 1009.31 1009.74 1010.37 1011.19 1012.13 1013.13
1013.14 1012.82 1012.53 1012.27 1012.01 1011.76 1011.51 1011.25 1011.01 1010.80 1010.66 1010.61 1010.65 1010.78 1010.97 1011.19 1011.38 1011.51 1011.53 1011.44 1011.25 1010.98 1010.66 1010.36 1010.09 1009.90 1009.77 1009.70 1009.66 1009.63 1009.57 1009.47 1009.34 1009.19 1009.07 1009.03 1009.11 1009.36 1009.79 1010.41 1011.19 1012.09 1013.06
1013.18 1012.88 1012.60 1012.34 1012.09 1011.83 1011.56 1011.29 1011.02 1010.79 1010.62 1010.53 1010.53 1010.62 1010.77 1010.96 1011.12 1011.24 1011.26 1011.19 1011.02 1010.78 1010.50 1010.22 1009.98 1009.79 1009.66 1009.59 1009.55 1009.52 1009.48 1009.41 1009.33 1009.23 1009.17 1009.18 1009.30 1009.57 1009.99 1010.58 1011.32 1012.15 1013.05
1013.24 1012.97 1012.71 1012.46 1012.21 1011.95 1011.68 1011.41 1011.13 1010.89 1010.69 1010.57 1010.52 1010.56 1010.65 1010.78 1010.90 1010.97 1010.98 1010.91 1010.76 1010.55 1010.30 1010.06 1009.84 1009.67 1009.56 1009.50 1009.47 1009.46 1009.45 1009.42 1009.39 1009.36 1009.36 1009.43 1009.59 1009.87 1010.29 1010.84 1011.51 1012.27 1013.07
1013.32 1013.08 1012.85 1012.61 1012.36 1012.11 1011.84 1011.57 1011.29 1011.05 1010.84 1010.69 1010.61 1010.59 1010.63 1010.69 1010.75 1010.77 1010.75 1010.66 1010.51 1010.32 1010.10 1009.89 1009.70 1009.56 1009.46 1009.42 1009.41 1009.42 1009.44 1009.46 1009.48 1009.52 1009.59 1009.71 1009.92 1010.22 1010.62 1011.13 1011.72 1012.38 1013.08
1013.42 1013.21 1012.99 1012.76 1012.52 1012.27 1012.01 1011.74 1011.48 1011.25 1011.04 1010.89 1010.78 1010.73 1010.72 1010.72 1010.72 1010.70 1010.63 1010.51 1010.35 1010.16 1009.96 1009.76 1009.59 1009.47 1009.39 1009.35 1009.36 1009.39 1009.44 1009.50 1009.58 1009.68 1009.81 1009.98 1010.22 1010.53 1010.92 1011.38 1011.89 1012.46 1013.04
1013.54 1013.35 1013.13 1012.91 1012.67 1012.43 1012.18 1011.93 1011.69 1011.47 1011.29 1011.15 1011.05 1010.98 1010.94 1010.90 1010.86 1010.78 1010.67 1010.52 1010.33 1010.12 1009.91 1009.72 1009.55 1009.43 1009.35 1009.32 1009.33 1009.37 1009.44 1009.53 1009.65 1009.80 1009.98 1010.19 1010.46 1010.77 1011.13 1011.54 1011.98 1012.45 1012.94
1013.67 1013.50 1013.30 1013.08 1012.84 1012.60 1012.36 1012.13 1011.92 1011.74 1011.59 1011.47 1011.39 1011.33 1011.28 1011.22 1011.14 1011.02 1010.87 1010.68 1010.46 1010.22 1009.99 1009.77 1009.59 1009.45 1009.36 1009.31 1009.31 1009.36 1009.43 1009.54 1009.69 1009.87 1010.08 1010.32 1010.59 1010.90 1011.23 1011.59 1011.96 1012.34 1012.73
1013.82 1013.67 1013.49 1013.28 1013.05 1012.82 1012.59 1012.38 1012.19 1012.04 1011.93 1011.85 1011.80 1011.75 1011.70 1011.64 1011.53 1011.39 1011.20 1010.96 1010.71 1010.43 1010.17 1009.92 1009.71 1009.54 1009.42 1009.35 1009.33 1009.36 1009.43 1009.54 1009.69 1009.88 1010.10 1010.35 1010.63 1010.91 1011.21 1011.51 1011.82 1012.12 1012.43
1013.99 1013.87 1013.72 1013.53 1013.32 1013.10 1012.88 1012.69 1012.52 1012.40 1012.31 1012.26 1012.24 1012.21 1012.17 1012.10 1011.99 1011.81 1011.59 1011.33 1011.03 1010.72 1010.42 1010.14 1009.89 1009.69 1009.54 1009.44 1009.39 1009.39 1009.44 1009.54 1009.68 1009.87 1010.08 1010.32 1010.57 1010.82 1011.08 1011.33 1011.57 1011.80 1012.04
1014.18 1014.11 1013.99 1013.83 1013.65 1013.44 1013.24 1013.06 1012.91 1012.80 1012.73 1012.70 1012.68 1012.67 1012.63 1012.56 1012.43 1012.24 1011.99 1011.70 1011.37 1011.03 1010.69 1010.38 1010.10 1009.87 1009.69 1009.57 1009.49 1009.47 1009.49 1009.57 1009.68 1009.84 1010.02 1010.23 1010.44 1010.66 1010.86 1011.06 1011.24 1011.41 1011.59
1014.38 1014.37 1014.30 1014.19 1014.04 1013.86 1013.67 1013.49 1013.34 1013.23 1013.16 1013.13 1013.11 1013.09 1013.04 1012.96 1012.81 1012.60 1012.34 1012.02 1011.67 1011.31 1010.96 1010.63 1010.34 1010.09 1009.89 1009.74 1009.64 1009.59 1009.59 1009.63 1009.71 1009.83 1009.97 1010.13 1010.30 1010.46 1010.61 1010.74 1010.87 1010.98 1011.10
1014.61 1014.66 1014.65 1014.58 1014.47 1014.31 1014.14 1013.97 1013.81 1013.69 1013.60 1013.55 1013.50 1013.46 1013.39 1013.28 1013.12 1012.89 1012.61 1012.28 1011.93 1011.56 1011.20 1010.87 1010.58 1010.32 1010.12 1009.96 1009.84 1009.77 1009.74 1009.74 1009.78 1009.85 1009.94 1010.04 1010.15 1010.26 1010.35 1010.43 1010.50 1010.56 1010.63
1014.86 1014.96 1015.00 1014.99 1014.91 1014.79 1014.63 1014.46 1014.30 1014.16 1014.04 1013.95 1013.88 1013.80 1013.69 1013.55 1013.36 1013.12 1012.82 1012.49 1012.14 1011.78 1011.44 1011.12 1010.84 1010.59 1010.39 1010.23 1010.10 1010.01 1009.95 1009.91 1009.90 1009.91 1009.94 1009.99 1010.03 1010.08 1010.12 1010.15 1010.17 1010.19 1010.22
1015.12 1015.27 1015.36 1015.38 1015.34 1015.24 1015.10 1014.94 1014.77 1014.62 1014.48 1014.36 1014.24 1014.12 1013.98 1013.81 1013.60 1013.34 1013.04 1012.71 1012.36 1012.02 1011.69 1011.40 1011.13 1010.91 1010.71 1010.55 1010.41 1010.30 1010.20 1010.12 1010.06 1010.01 1009.98 1009.96 1009.95 1009.94 1009.93 1009.92 1009.90 1009.89 1009.89
Thickness
5779 5778 5777 5776 5774 5771 5769 5767 5764 5761 5760 5759 5758 5759 5759 5760 5760 5762 5763 5763 5763 5763 5761 5758 5755 5752 5751 5749 5746 5744 5743 5741 5740 5738 5736 5733 5729 5724 5719 5715 5711 5708 5705
5779 5777 5776 5775 5772 5769 5767 5766 5764 5760 5759 5758 5758 5758 5758 5759 5760 5762 5762 5761 5761 5762 5760 5758 5755 5753 5751 5750 5747 5746 5744 5743 5741 5739 5737 5734 5731 5726 5721 5717 5713 5708 5705
5778 5775 5774 5772 5771 5769 5766 5765 5763 5760 5757 5757 5756 5756 5756 5757 5759 5761 5761 5761 5760 5760 5760 5757 5754 5752 5750 5749 5749 5747 5745 5743 5741 5739 5738 5736 5732 5728 5723 5718 5713 5708 5704
5774 5772 5770 5769 5769 5767 5764 5762 5760 5757 5756 5755 5754 5754 5755 5756 5757 5759 5759 5759 5758 5757 5757 5756 5754 5752 5750 5748 5748 5747 5745 5743 5742 5741 5739 5736 5733 5729 5724 5719 5714 5709 5704
5771 5767 5765 5764 5763 5762 5760 5758 5756 5754 5753 5753 5753 5753 5754 5755 5756 5757 5757 5757 5755 5755 5754 5754 5752 5750 5749 5748 5747 5746 5745 5743 5743 5742 5740 5737 5734 5730 5725 5720 5714 5709 5703
5767 5764 5762 5759 5758 5757 5755 5754 5752 5751 5751 5751 5750 5751 5752 5754 5755 5754 5754 5755 5754 5753 5752 5751 5750 5748 5748 5747 5747 5746 5744 5743 5743 5743 5741 5739 5736 5732 5727 5721 5715 5708 5702
5760 5759 5757 5755 5754 5752 5752 5752 5749 5747 5747 5747 5743 5743 5746 5749 5750 5752 5752 5752 5751 5751 5750 5749 5748 5747 5747 5747 5746 5745 5744 5742 5742 5742 5741 5740 5737 5734 5728 5723 5716 5708 5701
5753 5753 5751 5750 5749 5748 5748 5747 5746 5744 5744 5743 5738 5733 5730 5734 5742 5747 5748 5746 5746 5746 5746 5746 5745 5745 5746 5746 5745 5743 5742 5741 5741 5741 5741 5740 5738 5735 5730 5724 5717 5709 5701
5746 5746 5747 5747 5746 5744 5742 5742 5741 5739 5737 5738 5737 5730 5723 5721 5728 5737 5742 5741 5740 5739 5740 5741 5741 5742 5744 5744 5742 5741 5740 5739 5740 5740 5739 5739 5738 5736 5731 5725 5717 5710 5701
5737 5738 5740 5741 5741 5739 5737 5737 5737 5735 5732 5730 5731 5732 5730 5727 5721 5721 5728 5733 5734 5735 5736 5737 5737 5739 5740 5741 5740 5739 5737 5736 5737 5738 5737 5737 5736 5734 5731 5725 5717 5708 5699
5728 5729 5730 5732 5733 5732 5732 5731 5730 5728 5727 5726 5725 5725 5723 5721 5720 5714 5714 5719 5724 5729 5732 5733 5735 5736 5736 5737 5737 5735 5733 5732 5732 5734 5735 5735 5735 5734 5730 5724 5716 5706 5696
5720 5720 5721 5721 5722 5722 5723 5722 5721 5720 5719 5719 5719 5718 5717 5714 5712 5710 5709 5710 5711 5719 5725 5727 5729 5731 5732 5731 5731 5730 5728 5727 5728 5729 5732 5734 5735 5733 5729 5722 5714 5703 5692
5709 5710 5710 5709 5709 5710 5712 5711 5710 5709 5708 5708 5709 5710 5711 5710 5710 5707 5705 5704 5704 5709 5716 5720 5724 5725 5726 5726 5725 5724 5722 5722 5723 5724 5728 5731 5733 5732 5725 5718 5709 5699 5688
5698 5699 5699 5698 5698 5699 5701 5701 5699 5698 5698 5697 5699 5701 5702 5703 5702 5701 5700 5697 5694 5697 5702 5708 5714 5717 5718 5718 5718 5717 5716 5715 5715 5716 5719 5722 5725 5724 5717 5710 5701 5693 5684
5687 5688 5689 5689 5689 5690 5691 5691 5691 5690 5689 5689 5690 5692 5693 5693 5694 5695 5695 5693 5688 5685 5688 5697 5703 5709 5711 5710 5710 5709 5709 5708 5707 5706 5709 5712 5713 5712 5706 5699 5692 5686 5679
5677 5678 5679 5680 5681 5682 5682 5683 5683 5685 5683 5682 5683 5683 5683 5683 5683 5685 5686 5687 5685 5682 5681 5690 5696 5701 5704 5704 5703 5702 5702 5700 5699 5699 5701 5703 5702 5700 5695 5689 5684 5679 5674
5669 5669 5670 5671 5673 5674 5675 5675 5675 5677 5676 5674 5674 5673 5673 5674 5674 5676 5678 5678 5678 5678 5678 5683 5690 5695 5696 5697 5696 5695 5694 5693 5692 5693 5694 5695 5694 5691 5688 5682 5677 5673 5670
5661 5661 5661 5662 5664 5667 5668 5668 5668 5669 5668 5667 5665 5663 5663 5666 5666 5666 5667 5669 5670 5673 5674 5677 5683 5688 5691 5693 5692 5690 5689 5687 5686 5686 5686 5687 5687 5685 5682 5678 5673 5670 5667
5651 5652 5653 5654 5656 5659 5661 5662 5663 5663 5662 5660 5659 5656 5655 5656 5656 5656 5658 5661 5664 5668 5672 5675 5678 5684 5687 5688 5686 5684 5682 5681 5680 5679 5678 5678 5678 5677 5674 5672 5668 5666 5664
5642 5643 5643 5644 5646 5649 5651 5653 5654 5654 5653 5653 5651 5649 5648 5649 5650 5650 5653 5656 5659 5662 5665 5669 5672 5676 5680 5683 5681 5678 5674 5675 5674 5675 5674 5672 5672 5670 5668 5667 5664 5662 5662
5632 5632 5632 5634 5636 5637 5638 5640 5642 5642 5642 5642 5641 5640 5641 5642 5645 5646 5647 5649 5651 5652 5655 5658 5662 5666 5670 5672 5673 5674 5670 5669 5669 5670 5668 5667 5667 5666 5666 5665 5662 5660 5659
5621 5620 5620 5622 5623 5625 5627 5630 5630 5629 5629 5629 5628 5629 5631 5633 5636 5638 5640 5641 5642 5642 5645 5647 5650 5654 5658 5662 5666 5667 5665 5663 5661 5664 5664 5662 5663 5662 5664 5665 5663 5660 5658
5611 5610 5609 5609 5610 5613 5617 5618 5618 5617 5615 5614 5613 5615 5618 5620 5623 5626 5628 5630 5632 5634 5635 5636 5637 5640 5644 5649 5654 5657 5659 5658 5657 5658 5658 5655 5656 5656 5659 5661 5661 5659 5657
5600 5599 5598 5599 5600 5602 5605 5606 5605 5603 5600 5599 5599 5600 5601 5603 5606 5610 5612 5614 5617 5621 5624 5626 5627 5628 5631 5635 5640 5644 5647 5649 5649 5649 5649 5647 5648 5649 5651 5652 5654 5655 5655
5590 5589 5589 5590 5590 5590 5594 5595 5593 5590 5587 5586 5586 5587 5588 5588 5591 5595 5597 5599 5604 5608 5613 5615 5618 5619 5621 5623 5628 5632 5632 5633 5633 5636 5638 5639 5640 5641 5643 5644 5645 5647 5647
5581 5580 5578 5577 5577 5577 5580 5583 5583 5580 5577 5576 5576 5577 5577 5578 5580 5582 5582 5583 5585 5589 5596 5601 5604 5606 5609 5612 5615 5617 5618 5618 5618 5621 5627 5629 5631 5633 5634 5636 5637 5638 5639